Total_Precipitation_Accumulation
0.21 0.24 0.21 0.18 0.14 0.17 0.19 0.15 0.12 0.17 0.21 0.18 0.11 0.09 0.08 0.08 0.09 0.11 0.16 0.14 0.17 0.24 0.27 0.27 0.25 0.22 0.21 0.24 0.24 0.21 0.19 0.17 0.18 0.16 0.13 0.10 0.09 0.09 0.10 0.11 0.13 0.13 0.14
0.24 0.24 0.25 0.24 0.23 0.23 0.26 0.27 0.23 0.20 0.20 0.22 0.14 0.09 0.09 0.13 0.14 0.15 0.19 0.21 0.25 0.30 0.37 0.42 0.42 0.36 0.33 0.35 0.34 0.31 0.30 0.28 0.28 0.28 0.24 0.21 0.18 0.16 0.16 0.16 0.17 0.16 0.15
0.26 0.26 0.32 0.36 0.33 0.32 0.31 0.32 0.31 0.26 0.23 0.21 0.19 0.18 0.17 0.17 0.18 0.21 0.29 0.37 0.40 0.40 0.41 0.44 0.45 0.46 0.44 0.46 0.44 0.41 0.41 0.38 0.35 0.34 0.33 0.32 0.30 0.28 0.27 0.26 0.25 0.23 0.20
0.34 0.42 0.49 0.49 0.48 0.47 0.49 0.51 0.47 0.42 0.39 0.36 0.35 0.35 0.31 0.31 0.32 0.36 0.41 0.49 0.51 0.48 0.45 0.41 0.41 0.45 0.46 0.46 0.46 0.46 0.43 0.39 0.40 0.41 0.41 0.42 0.40 0.38 0.35 0.34 0.33 0.30 0.27
0.62 0.70 0.74 0.73 0.73 0.76 0.74 0.67 0.66 0.60 0.58 0.55 0.45 0.45 0.38 0.40 0.44 0.45 0.50 0.54 0.57 0.56 0.52 0.48 0.46 0.45 0.43 0.44 0.45 0.43 0.42 0.42 0.44 0.42 0.41 0.42 0.43 0.42 0.37 0.35 0.36 0.35 0.32
1.12 1.16 1.14 1.12 1.08 1.04 0.96 0.87 0.83 0.74 0.67 0.62 0.49 0.45 0.43 0.45 0.50 0.50 0.49 0.49 0.47 0.45 0.45 0.46 0.46 0.43 0.39 0.39 0.40 0.39 0.40 0.42 0.40 0.39 0.38 0.40 0.43 0.41 0.36 0.33 0.33 0.34 0.35
1.80 1.74 1.63 1.55 1.45 1.37 1.27 1.19 1.04 0.93 0.82 0.71 0.64 0.56 0.45 0.43 0.44 0.43 0.41 0.38 0.40 0.41 0.41 0.41 0.37 0.36 0.34 0.36 0.36 0.34 0.37 0.41 0.43 0.44 0.44 0.44 0.43 0.40 0.37 0.35 0.36 0.35 0.35
2.37 2.28 2.19 2.09 1.88 1.68 1.48 1.31 1.18 1.08 0.92 0.75 0.69 0.64 0.51 0.38 0.32 0.30 0.29 0.29 0.30 0.35 0.37 0.38 0.38 0.37 0.34 0.33 0.34 0.36 0.37 0.39 0.42 0.45 0.49 0.54 0.56 0.54 0.52 0.48 0.45 0.43 0.40
2.88 2.72 2.58 2.29 2.01 1.80 1.64 1.46 1.27 1.13 0.95 0.77 0.68 0.62 0.54 0.46 0.34 0.25 0.22 0.22 0.22 0.22 0.23 0.24 0.23 0.22 0.23 0.24 0.27 0.33 0.35 0.33 0.36 0.40 0.47 0.53 0.56 0.55 0.54 0.53 0.52 0.52 0.51
2.84 2.59 2.45 2.30 2.06 1.74 1.44 1.19 0.99 0.82 0.70 0.60 0.51 0.44 0.39 0.35 0.34 0.29 0.21 0.17 0.15 0.14 0.14 0.13 0.14 0.16 0.19 0.21 0.27 0.33 0.34 0.33 0.35 0.37 0.39 0.42 0.45 0.48 0.52 0.57 0.61 0.63 0.64
2.49 2.23 2.06 1.87 1.58 1.24 0.94 0.73 0.58 0.49 0.44 0.40 0.36 0.33 0.32 0.30 0.29 0.29 0.25 0.17 0.15 0.16 0.16 0.17 0.17 0.17 0.17 0.19 0.23 0.32 0.34 0.29 0.29 0.30 0.31 0.33 0.35 0.38 0.42 0.48 0.54 0.59 0.63
2.01 1.65 1.33 1.04 0.82 0.66 0.54 0.45 0.38 0.32 0.28 0.26 0.25 0.23 0.22 0.23 0.23 0.25 0.25 0.20 0.16 0.14 0.13 0.13 0.14 0.14 0.14 0.15 0.18 0.25 0.23 0.23 0.22 0.21 0.21 0.22 0.22 0.23 0.26 0.32 0.39 0.46 0.53
1.34 1.06 0.81 0.63 0.48 0.38 0.31 0.26 0.22 0.19 0.17 0.17 0.16 0.17 0.17 0.16 0.15 0.16 0.17 0.17 0.15 0.12 0.11 0.12 0.12 0.13 0.14 0.16 0.17 0.20 0.19 0.18 0.17 0.15 0.14 0.13 0.12 0.12 0.14 0.17 0.22 0.29 0.38
0.87 0.66 0.50 0.38 0.31 0.27 0.22 0.19 0.17 0.16 0.15 0.14 0.14 0.14 0.13 0.12 0.12 0.13 0.14 0.14 0.15 0.14 0.12 0.12 0.10 0.09 0.10 0.11 0.14 0.17 0.15 0.17 0.15 0.12 0.11 0.09 0.08 0.08 0.08 0.10 0.12 0.15 0.19
0.46 0.37 0.31 0.26 0.22 0.19 0.18 0.18 0.18 0.17 0.15 0.14 0.12 0.11 0.10 0.10 0.10 0.11 0.12 0.14 0.18 0.19 0.14 0.10 0.08 0.06 0.06 0.07 0.09 0.09 0.11 0.13 0.12 0.10 0.09 0.07 0.06 0.06 0.06 0.07 0.08 0.09 0.10
0.33 0.29 0.26 0.23 0.19 0.16 0.13 0.12 0.12 0.11 0.11 0.11 0.11 0.11 0.11 0.10 0.10 0.10 0.11 0.12 0.14 0.19 0.17 0.09 0.07 0.06 0.06 0.06 0.08 0.08 0.09 0.10 0.10 0.09 0.09 0.08 0.08 0.07 0.08 0.08 0.10 0.11 0.11
0.21 0.19 0.17 0.15 0.14 0.12 0.11 0.11 0.11 0.11 0.12 0.12 0.12 0.11 0.11 0.11 0.11 0.09 0.09 0.10 0.10 0.14 0.17 0.10 0.07 0.07 0.09 0.11 0.11 0.13 0.13 0.14 0.13 0.16 0.16 0.15 0.13 0.11 0.11 0.12 0.13 0.14 0.14
0.13 0.12 0.12 0.11 0.11 0.11 0.11 0.10 0.10 0.10 0.10 0.10 0.09 0.09 0.08 0.08 0.10 0.09 0.09 0.09 0.10 0.13 0.16 0.15 0.11 0.10 0.11 0.13 0.15 0.17 0.10 0.09 0.12 0.16 0.16 0.13 0.12 0.11 0.11 0.11 0.11 0.10 0.09
0.13 0.13 0.12 0.11 0.10 0.10 0.09 0.09 0.09 0.08 0.08 0.07 0.07 0.07 0.07 0.07 0.08 0.09 0.11 0.11 0.12 0.13 0.19 0.23 0.18 0.15 0.13 0.12 0.16 0.14 0.14 0.22 0.15 0.13 0.11 0.09 0.08 0.07 0.06 0.05 0.06 0.05 0.04
0.11 0.10 0.10 0.09 0.09 0.08 0.06 0.06 0.06 0.06 0.06 0.06 0.05 0.05 0.05 0.06 0.07 0.10 0.12 0.14 0.17 0.20 0.23 0.25 0.20 0.16 0.14 0.13 0.21 0.21 0.19 0.22 0.19 0.11 0.10 0.07 0.06 0.04 0.04 0.05 0.06 0.05 0.04
0.09 0.07 0.05 0.04 0.03 0.02 0.02 0.02 0.02 0.02 0.03 0.03 0.03 0.03 0.03 0.03 0.06 0.10 0.12 0.16 0.22 0.26 0.26 0.27 0.23 0.19 0.15 0.18 0.23 0.25 0.26 0.21 0.16 0.12 0.13 0.11 0.14 0.16 0.19 0.18 0.14 0.10 0.06
0.04 0.02 0.02 0.01 0.01 0.01 0.00 0.00 0.00 0.01 0.02 0.03 0.04 0.04 0.03 0.03 0.04 0.07 0.10 0.15 0.22 0.27 0.28 0.30 0.26 0.25 0.22 0.27 0.34 0.36 0.38 0.34 0.24 0.17 0.21 0.15 0.15 0.20 0.24 0.26 0.24 0.15 0.09
0.04 0.03 0.02 0.02 0.02 0.01 0.00 0.00 0.00 0.01 0.03 0.06 0.07 0.07 0.05 0.04 0.08 0.10 0.09 0.09 0.12 0.14 0.23 0.33 0.37 0.35 0.36 0.41 0.51 0.49 0.45 0.44 0.38 0.30 0.39 0.31 0.23 0.27 0.24 0.27 0.32 0.26 0.19
0.05 0.05 0.04 0.03 0.05 0.02 0.00 0.00 0.00 0.01 0.04 0.06 0.07 0.08 0.10 0.12 0.10 0.08 0.07 0.08 0.12 0.19 0.25 0.33 0.43 0.45 0.46 0.48 0.55 0.57 0.53 0.48 0.39 0.38 0.50 0.45 0.28 0.29 0.28 0.44 0.51 0.46 0.36
0.06 0.05 0.04 0.05 0.07 0.06 0.01 0.00 0.00 0.02 0.04 0.05 0.06 0.07 0.07 0.11 0.09 0.09 0.08 0.12 0.17 0.25 0.26 0.36 0.47 0.52 0.53 0.56 0.56 0.56 0.58 0.59 0.49 0.39 0.44 0.47 0.38 0.32 0.33 0.52 0.60 0.65 0.55
0.07 0.05 0.05 0.07 0.08 0.09 0.02 0.00 0.01 0.02 0.04 0.05 0.07 0.10 0.09 0.08 0.10 0.10 0.08 0.14 0.24 0.28 0.38 0.57 0.69 0.71 0.67 0.65 0.61 0.59 0.61 0.62 0.60 0.55 0.47 0.49 0.50 0.44 0.44 0.56 0.68 0.67 0.62